Theta_e
312 311 315 324 319 313 317 320 321 321 324 323 343 349 353 353 362 367 353 359 360 355 353 346 346 347 346 344 339 335 330 327 330 337 339 340 340 337 332 333 335 337 338 332 325 324 324 328 336
312 319 321 317 317 316 314 316 322 321 321 327 334 340 346 355 348 348 352 363 359 354 354 348 346 346 347 345 341 335 330 327 330 333 334 335 336 334 332 333 336 339 336 332 326 324 324 324 331
317 320 317 318 315 319 318 318 318 319 319 321 322 335 341 344 346 347 353 362 358 355 354 351 346 346 346 345 342 337 332 329 331 330 329 329 333 332 333 335 339 339 336 334 333 330 326 324 325
318 314 312 316 320 318 321 318 317 320 320 317 325 337 335 340 343 349 357 362 359 355 354 352 346 345 345 345 343 339 333 331 330 329 328 327 328 331 333 335 338 339 337 337 336 334 329 328 325
318 309 314 317 317 317 318 316 315 318 318 317 320 335 336 342 347 355 363 362 360 355 354 351 346 344 342 344 345 341 335 333 330 330 328 328 327 329 332 336 337 339 338 336 336 336 332 327 325
310 309 313 314 315 315 315 312 315 315 315 316 325 331 334 345 343 359 357 362 363 359 355 351 347 344 341 340 345 344 337 335 331 330 330 328 329 328 331 335 337 336 335 336 336 336 331 326 323
310 307 311 315 313 314 315 312 313 313 314 316 318 323 324 326 346 349 358 363 363 362 359 353 351 346 342 340 342 346 340 337 333 331 331 329 330 330 331 335 337 338 338 337 338 331 324 323 323
308 307 312 311 311 314 313 313 313 313 315 315 316 316 320 321 328 346 359 363 363 362 361 359 354 347 345 345 341 345 344 339 336 332 332 330 330 334 334 336 338 339 340 341 335 325 323 323 323
308 306 306 313 315 314 312 314 314 314 314 315 315 317 317 318 318 329 362 363 363 362 359 360 358 352 347 346 346 344 346 342 339 334 335 332 332 335 336 338 340 342 342 339 331 327 326 325 323
310 308 313 314 315 315 314 316 316 316 314 315 315 316 318 318 316 317 318 350 362 362 360 358 359 356 350 347 348 350 350 351 344 338 336 334 332 335 337 340 342 342 339 334 331 329 326 323 322
314 314 315 315 315 316 315 314 316 316 316 315 315 316 315 317 317 315 317 319 355 361 361 360 359 358 354 350 348 352 353 354 346 341 336 335 334 337 339 342 343 341 338 335 332 327 324 322 322
317 315 315 315 315 313 314 314 315 315 315 315 315 315 316 315 315 316 316 317 318 333 360 361 360 358 356 352 349 350 352 354 351 343 341 337 335 337 339 341 341 340 339 335 332 329 325 323 324
316 315 314 314 313 313 314 315 316 314 314 314 314 315 315 314 314 316 319 317 317 331 346 356 357 358 355 353 352 349 350 350 347 343 339 339 336 335 338 338 338 339 342 338 333 330 327 328 327
314 314 314 314 314 313 315 315 315 315 315 315 315 315 314 313 313 315 317 318 317 317 336 352 356 351 355 350 352 351 348 346 346 344 340 338 337 338 342 341 343 341 341 339 334 331 336 336 335
315 315 315 316 315 313 312 313 314 314 312 313 314 314 314 314 315 314 317 317 319 319 317 331 353 353 353 351 350 352 351 347 345 345 342 341 340 340 344 343 344 343 343 343 338 334 338 339 339
316 315 315 314 313 313 313 312 312 311 311 313 313 312 313 311 312 316 317 318 319 318 318 325 345 354 353 352 351 352 351 350 348 343 344 344 345 339 346 345 343 343 345 344 338 338 339 340 339
313 316 313 311 311 312 312 312 312 312 312 313 312 312 312 312 312 315 316 317 319 318 318 319 327 339 349 355 352 352 350 349 349 349 346 343 345 344 346 347 344 344 347 345 341 342 340 341 336
312 312 311 312 312 313 312 311 312 312 311 312 312 312 312 312 312 314 314 316 317 318 318 319 320 324 336 349 352 351 350 347 348 347 348 346 346 346 343 346 346 345 348 345 343 343 341 335 334
312 313 312 312 313 314 313 311 313 312 311 312 313 311 312 313 313 314 314 315 316 317 319 320 320 323 331 345 350 351 351 350 348 348 346 346 347 346 344 344 347 344 345 345 344 340 335 335 336
316 314 314 313 315 315 313 313 313 313 312 313 316 316 315 317 317 316 316 317 315 317 318 320 320 322 327 339 337 347 346 349 348 347 349 346 346 346 345 343 347 346 343 342 338 338 335 335 339
316 315 314 315 314 314 313 314 314 313 317 318 318 317 317 317 317 317 316 316 316 316 318 319 321 322 323 324 334 341 345 347 347 347 347 349 348 346 345 343 347 345 342 342 339 339 336 339 345
314 314 315 314 313 313 313 316 312 313 316 319 318 316 317 317 318 319 319 318 317 316 318 320 320 322 323 323 335 339 341 345 343 343 346 346 349 347 345 346 345 345 344 342 340 339 336 337 345
316 314 313 313 314 314 313 312 313 316 319 319 319 318 317 317 318 320 320 319 322 323 320 319 321 322 324 325 330 334 338 332 325 342 346 346 347 347 346 345 345 344 343 342 339 339 339 339 341
314 313 312 313 312 313 317 318 317 319 320 321 321 320 319 317 317 319 320 319 320 322 323 321 326 325 326 326 328 335 336 330 340 346 347 346 346 347 346 345 345 344 342 343 339 338 343 343 344
312 311 311 315 313 315 315 317 315 320 320 319 320 319 317 317 316 316 318 319 319 321 321 323 326 330 330 329 329 331 339 331 340 345 347 347 346 346 345 345 344 345 343 341 338 339 344 344 344
313 312 311 320 319 320 317 319 319 318 318 319 320 319 316 318 314 315 315 317 317 319 319 321 322 326 329 331 329 330 335 336 342 344 346 346 346 345 346 344 343 342 341 343 340 341 345 344 344
314 311 314 312 315 318 317 317 319 318 319 319 318 317 313 313 313 314 314 315 316 316 317 318 323 324 329 329 331 327 330 336 337 340 345 345 347 345 344 344 340 334 339 344 343 344 344 342 332
313 313 318 314 317 320 317 315 316 319 317 318 316 312 311 311 311 311 312 313 313 313 314 317 322 323 326 336 332 336 335 336 339 340 342 343 346 344 344 343 340 342 344 344 343 341 332 329 324
314 314 317 319 318 322 320 315 313 314 313 315 313 311 309 309 309 310 310 311 312 313 313 316 319 323 324 324 334 336 337 336 335 335 338 339 343 344 344 344 343 342 338 335 332 329 325 322 319
313 314 316 310 319 315 317 317 312 312 314 313 312 311 308 307 307 307 307 308 310 312 313 314 316 322 324 325 323 324 332 332 334 333 337 341 340 341 341 342 342 337 335 333 333 329 324 321 318
Wind_Speed
14 12 9 3 4 5 3 5 3 6 3 6 5 11 6 6 2 6 5 8 15 30 28 23 22 21 20 18 17 17 16 17 19 19 20 23 24 25 27 27 23 20 18 17 16 15 14 14 14
12 8 4 2 4 3 5 5 2 4 4 9 6 6 8 5 4 5 8 14 20 29 28 25 22 21 20 19 18 16 16 16 18 20 21 23 24 26 26 24 21 18 17 16 14 13 11 10 10
11 4 3 3 3 4 3 5 7 8 5 2 5 4 4 3 4 3 9 17 21 29 28 25 22 21 20 19 18 17 16 16 18 19 21 22 25 25 24 21 18 16 15 14 13 11 10 9 8
4 5 4 3 3 7 3 10 8 7 5 10 5 8 5 4 4 8 10 15 19 23 25 25 22 21 20 18 18 18 17 17 18 20 20 21 23 23 22 20 18 16 15 12 9 8 7 7 6
2 3 4 2 5 5 6 14 9 8 3 7 4 4 5 6 17 14 15 20 20 20 21 22 22 21 20 18 18 18 18 18 19 20 21 20 21 21 21 18 16 14 13 10 8 7 5 5 4
4 3 4 2 5 6 5 9 8 8 8 8 8 4 3 13 13 16 14 19 19 19 18 21 19 18 19 19 18 19 19 19 20 21 22 22 22 21 21 19 16 14 12 10 8 7 6 5 5
5 4 3 3 6 4 5 8 10 6 9 9 2 5 3 6 11 12 14 20 18 17 18 21 20 17 17 18 20 20 20 20 19 21 22 22 22 22 21 19 16 14 11 9 8 7 6 6 5
5 4 3 3 6 1 7 5 4 7 5 9 3 3 2 3 10 14 19 19 18 16 15 16 19 20 19 19 19 21 21 20 20 21 21 22 22 22 20 19 16 14 12 10 9 8 7 6 5
4 4 1 3 6 4 6 8 7 4 5 2 5 2 3 5 10 5 17 20 20 20 18 17 20 23 22 20 20 21 22 21 21 21 21 21 23 23 21 20 17 15 13 11 10 9 8 7 6
5 4 6 5 3 5 3 3 5 8 9 6 9 14 18 18 10 9 0 10 20 23 22 21 22 24 24 24 22 22 22 22 23 23 23 23 24 24 23 20 18 15 13 11 11 11 9 8 7
3 2 4 5 5 5 3 3 3 2 7 8 7 8 9 4 14 6 6 3 21 22 24 24 24 24 26 26 26 23 23 25 25 25 25 25 24 24 23 21 20 18 16 15 14 13 12 9 8
2 5 1 5 5 5 8 5 4 6 10 10 10 6 4 9 6 11 8 10 13 16 28 26 22 23 24 28 28 28 26 26 25 28 27 27 26 26 25 24 23 21 19 18 17 15 12 11 9
1 5 9 10 11 10 7 11 17 6 14 11 10 9 8 9 10 15 18 16 14 9 22 24 26 26 25 27 28 29 29 30 30 30 30 29 28 28 27 26 25 24 21 20 19 16 14 12 11
4 8 10 6 10 7 6 12 5 10 7 9 9 11 11 10 11 17 17 21 20 15 19 25 28 27 30 31 30 30 30 31 31 32 32 32 31 30 29 28 27 25 24 23 21 19 15 11 10
4 9 12 12 5 6 4 10 4 5 7 8 9 10 10 10 16 15 27 25 26 23 19 26 31 31 31 35 34 32 32 31 33 35 34 34 34 33 31 30 28 26 26 24 24 21 19 16 15
6 1 3 8 4 7 3 9 9 11 9 11 6 7 8 10 11 21 24 28 27 24 19 23 29 35 32 37 33 33 33 31 34 35 36 36 36 37 32 33 32 27 28 23 25 23 21 18 17
4 5 6 7 6 5 4 10 6 8 9 14 15 13 11 13 13 23 27 24 31 29 27 23 28 32 34 33 37 32 35 32 34 33 36 36 37 38 36 34 35 30 29 27 26 24 23 21 19
8 5 6 7 6 4 3 10 8 7 8 14 16 17 15 14 16 25 31 34 30 34 34 30 25 31 33 33 35 34 32 31 27 32 35 36 37 38 42 35 37 35 33 31 29 28 24 22 12
7 7 8 7 4 5 3 11 14 6 9 16 17 12 13 15 17 27 29 36 38 34 36 35 30 33 37 33 31 31 34 35 35 23 34 35 39 38 40 42 35 40 31 33 29 28 23 17 11
11 8 15 11 3 2 6 19 10 8 7 6 8 9 8 12 14 17 23 30 33 37 36 38 34 33 37 37 34 31 31 34 37 39 31 33 40 43 42 45 36 36 33 32 33 27 21 20 16
9 9 10 8 6 2 5 13 12 11 1 5 7 6 7 7 12 12 15 21 31 32 35 39 38 36 39 40 38 31 23 19 26 33 43 32 39 48 42 46 40 37 36 36 33 29 25 21 18
3 10 6 12 9 4 5 17 7 8 6 5 8 8 8 10 15 14 15 20 26 24 32 36 40 38 38 43 38 33 27 22 26 33 35 44 35 47 43 41 46 42 37 38 34 30 29 26 20
4 11 7 8 3 0 3 6 5 6 6 8 10 9 9 11 13 13 12 17 21 31 19 30 38 41 40 42 40 37 31 30 31 30 34 36 42 35 46 44 43 43 38 38 36 32 31 31 26
7 8 6 3 2 3 1 2 5 3 7 8 14 11 10 11 12 12 17 22 25 31 35 14 23 38 40 41 43 38 35 31 30 29 26 29 36 39 41 36 43 43 44 40 40 35 31 28 24
10 7 5 6 4 4 2 8 8 5 5 4 7 9 9 9 8 10 13 14 25 24 29 27 15 20 36 40 41 40 37 35 33 30 25 26 29 25 33 28 36 25 26 34 38 33 32 29 23
5 4 4 5 3 14 5 5 4 6 8 4 4 6 7 3 5 10 12 16 21 25 30 33 32 30 26 37 41 41 39 34 32 30 26 26 30 32 39 32 33 29 33 35 34 30 28 25 24
5 2 4 0 3 3 3 6 6 8 7 5 9 9 9 9 8 8 12 20 21 28 30 27 31 30 20 28 31 40 35 29 28 27 23 22 25 28 32 34 29 39 40 35 34 32 30 28 31
2 3 2 3 3 4 4 5 8 6 6 7 8 6 6 9 13 11 9 18 24 29 32 26 18 18 22 20 25 21 23 22 21 21 20 19 21 25 29 35 36 32 34 30 28 28 28 34 30
5 3 3 3 3 3 4 5 4 14 5 7 4 6 7 9 10 12 13 20 24 27 28 32 18 8 18 18 14 14 11 12 15 13 16 15 14 16 19 28 31 21 28 31 30 33 26 28 28
6 7 3 3 5 5 8 13 12 3 4 4 4 6 7 7 8 12 13 23 24 26 25 28 28 4 3 16 12 3 4 10 10 14 15 13 9 10 13 19 21 31 36 33 34 25 27 26 25
Wind_Direction
327 328 312 34 47 58 301 288 227 299 44 342 59 99 92 31 37 147 104 175 181 167 166 168 163 159 155 151 146 144 142 150 151 155 154 152 153 154 153 152 151 146 142 138 135 135 133 133 133
331 4 61 71 85 46 287 258 348 274 162 147 98 106 58 55 46 101 112 154 159 165 165 171 166 162 161 156 152 149 146 151 156 157 156 154 154 155 155 155 152 147 140 138 136 136 137 139 140
331 329 83 98 102 188 207 285 318 291 309 115 118 77 92 103 42 74 125 158 157 164 168 171 168 168 166 162 158 157 155 155 159 159 158 156 154 156 156 154 150 145 141 141 142 145 147 150 150
346 15 24 86 240 257 226 290 255 275 324 1 131 89 53 156 119 114 124 153 157 166 173 173 173 173 171 167 165 165 165 161 164 165 164 160 158 160 161 161 159 155 149 145 144 145 150 156 159
71 60 43 7 276 283 316 336 321 36 65 357 335 52 91 57 115 100 117 153 162 168 175 178 181 179 175 175 173 174 173 169 170 170 171 168 165 166 167 168 168 167 164 162 162 159 166 176 180
29 94 49 306 274 326 342 344 9 30 354 18 48 64 55 136 103 110 117 151 156 157 177 184 188 189 182 181 183 184 182 179 177 176 177 175 173 173 175 177 177 179 178 176 178 180 185 190 196
111 81 215 254 282 7 350 322 18 357 17 13 143 71 331 56 125 125 134 152 160 165 169 185 193 197 196 191 189 191 190 187 184 183 183 181 179 179 181 182 185 188 188 189 191 198 198 203 210
118 93 357 339 319 308 323 10 326 24 25 302 51 75 276 284 137 150 153 160 167 171 182 191 196 197 199 199 195 195 197 193 191 189 188 186 185 185 186 186 189 194 194 199 202 206 206 211 225
112 65 19 337 331 268 307 14 321 277 20 5 317 100 180 14 16 126 159 163 169 174 182 191 200 202 202 204 201 197 197 199 197 193 193 190 189 189 189 191 193 198 201 206 210 215 216 223 232
97 105 219 221 248 264 188 62 311 355 346 336 338 330 342 347 16 31 74 211 180 186 191 198 200 202 202 203 203 198 193 196 199 197 193 195 195 194 194 195 199 204 212 212 217 223 224 229 235
328 174 188 275 251 298 313 212 217 204 295 279 269 283 312 346 331 357 323 279 218 207 199 204 202 204 204 202 201 193 192 197 202 202 198 197 199 197 200 200 203 210 214 216 219 223 225 228 237
7 311 13 280 342 337 311 294 278 192 240 241 250 218 260 293 278 292 277 291 287 224 216 206 209 210 209 207 204 198 195 199 201 205 205 199 198 200 203 206 210 211 215 217 220 224 228 231 231
61 320 325 321 323 313 316 309 287 245 266 267 259 267 268 258 267 260 265 277 278 238 220 214 206 211 211 212 205 204 205 206 207 207 207 205 202 200 205 208 212 215 218 221 222 225 229 233 227
292 313 299 296 305 300 315 293 2 285 297 295 293 280 272 260 252 259 245 253 263 255 222 217 207 211 206 212 215 208 211 214 213 214 212 209 210 205 205 208 211 215 221 223 223 223 221 216 223
289 331 321 304 310 296 308 326 276 295 312 278 278 292 288 282 280 245 244 234 247 258 252 218 213 212 208 210 215 216 215 215 216 218 218 214 210 209 210 210 214 217 225 227 225 225 223 229 232
327 157 307 293 5 289 81 281 296 329 354 334 313 277 279 271 263 283 271 246 245 246 246 230 217 209 209 208 210 215 214 215 217 218 222 219 215 212 211 215 216 217 226 224 219 221 223 231 230
342 256 246 299 242 261 55 289 311 333 340 319 314 307 302 299 292 282 279 273 248 234 236 227 221 220 213 212 211 214 215 215 221 220 220 223 218 216 211 217 220 217 224 222 218 222 226 231 217
271 236 252 261 287 70 349 276 302 309 313 303 305 300 301 290 279 278 273 271 263 254 237 229 225 221 215 213 211 207 209 213 223 224 225 225 220 217 215 218 222 216 221 223 222 227 223 204 219
259 276 273 272 217 331 268 274 301 314 298 293 294 300 299 305 299 293 274 268 265 252 245 232 218 213 210 208 208 210 215 219 225 222 229 231 228 219 217 218 225 219 217 223 210 200 195 199 200
326 310 299 295 246 286 308 289 303 310 268 274 294 309 327 310 309 295 293 288 265 252 244 234 220 213 210 212 211 209 216 226 228 231 234 232 231 226 219 214 219 219 213 209 199 199 196 206 197
294 330 308 276 310 183 300 294 315 303 303 296 315 297 281 324 303 319 304 305 277 244 240 231 217 211 211 215 212 213 210 210 222 230 229 237 229 230 222 213 212 216 214 210 203 199 202 192 192
294 329 316 320 340 301 90 292 322 284 304 298 321 327 314 340 12 3 5 342 336 280 255 233 220 217 215 213 209 207 207 206 224 233 242 235 227 226 221 216 212 211 214 215 201 199 205 205 186
261 313 285 279 283 11 223 267 321 344 322 314 319 328 325 350 12 356 1 334 347 9 335 256 230 224 219 214 211 209 210 223 238 233 235 235 230 228 220 220 219 215 213 215 204 204 209 210 200
301 342 326 346 56 37 243 93 270 299 281 315 328 331 336 358 356 348 354 2 0 3 20 333 244 222 217 213 212 211 210 222 229 232 230 228 231 227 218 216 218 220 211 214 208 209 213 201 199
21 28 328 349 359 232 1 315 264 283 324 302 321 314 341 10 335 333 3 358 355 359 3 9 341 267 214 213 213 216 219 222 226 229 229 229 230 214 213 208 218 218 212 213 213 210 211 197 186
314 139 167 287 276 292 276 240 250 264 286 265 292 281 28 37 347 359 351 348 352 346 353 352 344 339 254 213 214 216 224 221 227 235 238 241 237 231 222 221 204 208 221 228 218 214 194 198 184
296 3 245 55 258 313 246 289 302 271 309 343 321 21 6 6 4 358 348 346 345 342 334 337 336 336 272 242 227 218 225 223 231 239 243 252 248 234 233 219 215 210 221 227 216 203 182 175 159
69 197 201 11 304 273 270 258 256 266 275 327 341 360 333 351 352 345 339 332 335 331 324 333 318 340 343 259 238 235 231 235 241 245 257 247 239 227 212 207 202 218 214 207 185 162 158 155 146
324 332 47 150 201 273 292 258 263 270 276 265 271 0 354 349 345 341 334 327 322 320 319 318 315 327 330 327 224 206 244 252 263 255 259 251 233 219 202 205 199 184 186 172 142 138 141 141 136
201 207 153 137 279 245 267 281 277 187 213 135 340 320 318 322 322 325 317 313 309 305 310 313 310 318 346 321 294 206 221 287 270 252 251 233 217 205 202 194 191 137 129 120 123 136 144 139 139